Вернуться в каталог

STARLINK-2483

АктивенСвязьVLEO
NORAD 48140·PAYLOAD·🇺🇸 United States

Запущен Apr 7, 2021 с Cape Canaveral Space Force Station

Loading…

Ближайшие Пролёты (ближайшие 24 часа)

TLE

СвежийSource: CelesTrak SupGP

Эпоха: Sep 14, 2026, 21:23 UTC

1 48140C 21027BA  26257.89145833 -.00015928  00000+0 -51213-3 0  2570
2 48140  53.1592   5.1753 0001016  88.8204  95.9714 15.31714473    15

Отслеживайте STARLINK-2483 в реальном времени с AllMySat

Download on the App Store